Location: Newark
(42.8481°N, 0.4872°E)
Time: 16:13:41
(UTC+00:00)

Vanguard 3 - Pass Details

Date: 31 October 2020
Orbit: 508 x 3262 km, 33.3° (Epoch: 28 November)

Event Time Altitude Azimuth Distance (km) Brightness Sun altitude
Rises 01:05:12 0° 167° (SSE) 5,288 - -56.2°
Exits shadow 01:13:31 10° 134° (SE) 5,102 11.1 -55.2°
Reaches altitude 10° 01:13:46 10° 133° (SE) 5,112 11.1 -55.2°
Maximum altitude 01:16:13 11° 124° (SE) 5,262 11.3 -54.9°
Drops below altitude 10° 01:18:48 10° 114° (ESE) 5,497 11.4 -54.6°
Sets 01:30:14 0° 84° (E) 7,094 12.4 -53.1°
